Time,TemperatureF,DewpointF,PressureIn,WindDirection,WindDirectionDegrees,WindSpeedMPH,WindSpeedGustMPH,Humidity,HourlyPrecipIn,Conditions,Clouds,dailyrainin,SoftwareType,DateUTC
2013-01-31 00:03:00,50.0,44.0,29.34,SSW,210,0.0,0.0,79,0.16,,,0.29,,2013-01-31 05:03:00,
2013-01-31 00:11:00,50.0,44.0,29.34,SSW,210,0.0,0.0,79,0.16,,,0.29,,2013-01-31 05:11:00,
2013-01-31 00:22:00,50.0,44.0,29.34,SSW,209,0.0,0.0,79,0.14,,,0.31,,2013-01-31 05:22:00,
2013-01-31 00:32:00,50.0,44.0,29.34,SSW,209,0.0,0.0,79,0.14,,,0.31,,2013-01-31 05:32:00,
2013-01-31 00:42:00,49.0,43.0,29.30,SSW,209,0.0,3.0,79,0.10,,,0.33,,2013-01-31 05:42:00,
2013-01-31 00:52:00,49.0,43.0,29.30,SSW,209,0.0,3.0,79,0.10,,,0.33,,2013-01-31 05:52:00,
2013-01-31 01:01:00,49.0,43.0,29.30,SSW,209,0.0,3.0,79,0.10,,,0.33,,2013-01-31 06:01:00,
2013-01-31 01:10:00,49.0,43.0,29.30,SSW,209,0.0,3.0,79,0.10,,,0.33,,2013-01-31 06:10:00,
2013-01-31 09:03:00,45.0,38.0,29.18,West,266,6.0,17.0,77,0.01,,,1.88,,2013-01-31 14:03:00,
2013-01-31 09:11:00,45.0,38.0,29.18,West,266,6.0,17.0,77,0.01,,,1.88,,2013-01-31 14:11:00,
2013-01-31 09:22:00,44.0,37.0,29.21,NW,312,9.0,28.0,75,0.00,,,1.88,,2013-01-31 14:22:00,
2013-01-31 09:32:00,44.0,34.0,29.22,NNW,339,9.0,30.0,69,0.00,,,1.88,,2013-01-31 14:32:00,
2013-01-31 09:42:00,44.0,34.0,29.22,NNW,339,9.0,30.0,69,0.00,,,1.88,,2013-01-31 14:42:00,
2013-01-31 09:52:00,45.0,32.0,29.25,ENE,62,9.0,26.0,61,0.00,,,1.88,,2013-01-31 14:52:00,
2013-01-31 10:03:00,44.0,32.0,29.26,NNW,337,9.0,26.0,62,0.00,,,1.88,,2013-01-31 15:03:00,
2013-01-31 10:12:00,44.0,32.0,29.26,NNW,337,9.0,26.0,62,0.00,,,1.88,,2013-01-31 15:12:00,
2013-01-31 10:23:00,44.0,33.0,29.27,West,264,7.0,21.0,64,0.00,,,1.88,,2013-01-31 15:23:00,
2013-01-31 10:32:00,43.0,31.0,29.30,WNW,297,10.0,25.0,63,0.00,,,1.88,,2013-01-31 15:32:00,
2013-01-31 10:42:00,43.0,31.0,29.30,WNW,297,10.0,25.0,63,0.00,,,1.88,,2013-01-31 15:42:00,
2013-01-31 10:52:00,44.0,30.0,29.30,NW,312,12.0,29.0,58,0.00,,,1.88,,2013-01-31 15:52:00,
2013-01-31 11:03:00,46.0,28.0,29.31,NNE,20,10.0,25.0,49,0.00,,,1.88,,2013-01-31 16:03:00,
2013-01-31 11:13:00,46.0,28.0,29.31,NNE,20,10.0,25.0,49,0.00,,,1.88,,2013-01-31 16:13:00,
2013-01-31 11:22:00,46.0,27.0,29.31,NNW,337,9.0,21.0,48,0.00,,,1.88,,2013-01-31 16:22:00,
2013-01-31 11:33:00,46.0,29.0,29.32,West,264,5.0,18.0,52,0.00,,,1.88,,2013-01-31 16:33:00,
2013-01-31 11:42:00,46.0,29.0,29.32,West,264,5.0,18.0,52,0.00,,,1.88,,2013-01-31 16:42:00,
2013-01-31 11:52:00,42.0,28.0,29.34,NNW,328,10.0,21.0,57,0.00,,,1.88,,2013-01-31 16:52:00,
2013-01-31 12:03:00,41.0,27.0,29.34,NW,320,10.0,17.0,56,0.00,,,1.88,,2013-01-31 17:03:00,
2013-01-31 12:13:00,41.0,27.0,29.34,NW,320,10.0,17.0,56,0.00,,,1.88,,2013-01-31 17:13:00,
2013-01-31 12:23:00,41.0,27.0,29.34,NW,320,10.0,17.0,56,0.00,,,1.88,,2013-01-31 17:23:00,
2013-01-31 12:32:00,43.0,25.0,29.35,North,355,13.0,24.0,48,0.00,,,1.88,,2013-01-31 17:32:00,
2013-01-31 12:43:00,43.0,25.0,29.35,North,355,13.0,24.0,48,0.00,,,1.88,,2013-01-31 17:43:00,
2013-01-31 12:53:00,43.0,25.0,29.35,North,355,13.0,24.0,48,0.00,,,1.88,,2013-01-31 17:53:00,
2013-01-31 13:03:00,44.0,27.0,29.36,NW,307,6.0,23.0,50,0.00,,,1.88,,2013-01-31 18:03:00,
2013-01-31 13:12:00,44.0,25.0,29.36,NW,326,10.0,35.0,46,0.00,,,1.88,,2013-01-31 18:12:00,
2013-01-31 13:22:00,44.0,25.0,29.36,NW,326,10.0,35.0,46,0.00,,,1.88,,2013-01-31 18:22:00,
2013-01-31 13:32:00,42.0,23.0,29.36,NNW,331,6.0,16.0,47,0.00,,,1.88,,2013-01-31 18:32:00,
2013-01-31 13:43:00,42.0,23.0,29.36,NNW,331,6.0,16.0,47,0.00,,,1.88,,2013-01-31 18:43:00,
2013-01-31 13:52:00,42.0,22.0,29.36,WNW,289,11.0,22.0,45,0.00,,,1.88,,2013-01-31 18:52:00,
2013-01-31 14:03:00,42.0,21.0,29.37,WNW,283,7.0,26.0,43,0.00,,,1.88,,2013-01-31 19:03:00,
2013-01-31 14:12:00,42.0,21.0,29.37,WNW,283,7.0,26.0,43,0.00,,,1.88,,2013-01-31 19:12:00,
2013-01-31 14:22:00,42.0,21.0,29.38,NNW,327,7.0,21.0,42,0.00,,,1.88,,2013-01-31 19:22:00,
2013-01-31 14:33:00,42.0,21.0,29.39,NW,316,6.0,22.0,43,0.00,,,1.88,,2013-01-31 19:33:00,
2013-01-31 14:42:00,42.0,21.0,29.39,NW,316,6.0,22.0,43,0.00,,,1.88,,2013-01-31 19:42:00,
2013-01-31 14:52:00,43.0,22.0,29.39,WNW,287,7.0,25.0,43,0.00,,,1.88,,2013-01-31 19:52:00,
2013-01-31 15:02:00,42.0,22.0,29.41,NW,314,7.0,20.0,45,0.00,,,1.88,,2013-01-31 20:02:00,
2013-01-31 15:12:00,42.0,22.0,29.41,NW,314,7.0,20.0,45,0.00,,,1.88,,2013-01-31 20:12:00,
2013-01-31 15:22:00,42.0,20.0,29.42,NW,304,10.0,25.0,41,0.00,,,1.88,,2013-01-31 20:22:00,
2013-01-31 15:32:00,42.0,21.0,29.44,WNW,285,6.0,21.0,42,0.00,,,1.88,,2013-01-31 20:32:00,
2013-01-31 15:42:00,42.0,21.0,29.44,WNW,285,6.0,21.0,42,0.00,,,1.88,,2013-01-31 20:42:00,
2013-01-31 15:52:00,41.0,21.0,29.44,NW,307,8.0,20.0,44,0.00,,,1.88,,2013-01-31 20:52:00,
2013-01-31 16:02:00,40.0,22.0,29.46,West,274,9.0,20.0,48,0.00,,,1.88,,2013-01-31 21:02:00,
2013-01-31 16:12:00,40.0,22.0,29.46,West,274,9.0,20.0,48,0.00,,,1.88,,2013-01-31 21:12:00,
2013-01-31 16:22:00,40.0,22.0,29.46,West,274,9.0,20.0,48,0.00,,,1.88,,2013-01-31 21:22:00,
2013-01-31 16:32:00,37.0,24.0,29.50,West,272,8.0,18.0,59,0.00,,,1.88,,2013-01-31 21:32:00,
2013-01-31 16:42:00,37.0,24.0,29.50,West,272,8.0,18.0,59,0.00,,,1.88,,2013-01-31 21:42:00,
2013-01-31 16:52:00,36.0,23.0,29.50,WNW,301,3.0,23.0,60,0.00,,,1.88,,2013-01-31 21:52:00,
2013-01-31 17:03:00,36.0,24.0,29.52,WSW,240,7.0,20.0,62,0.00,,,1.88,,2013-01-31 22:03:00,
2013-01-31 17:11:00,36.0,24.0,29.52,WSW,240,7.0,20.0,62,0.00,,,1.88,,2013-01-31 22:11:00,
2013-01-31 17:22:00,35.0,24.0,29.52,WSW,257,5.0,15.0,63,0.00,,,1.88,,2013-01-31 22:22:00,
2013-01-31 17:33:00,35.0,24.0,29.54,WNW,301,4.0,14.0,65,0.00,,,1.88,,2013-01-31 22:33:00,
2013-01-31 17:42:00,35.0,24.0,29.54,WNW,301,4.0,14.0,65,0.00,,,1.88,,2013-01-31 22:42:00,
2013-01-31 17:51:00,35.0,24.0,29.54,WNW,301,4.0,14.0,65,0.00,,,1.88,,2013-01-31 22:51:00,
2013-01-31 18:03:00,33.0,23.0,29.57,NW,304,8.0,22.0,65,0.00,,,1.86,,2013-01-31 23:03:00,
2013-01-31 18:12:00,33.0,23.0,29.57,NW,304,8.0,22.0,65,0.00,,,1.86,,2013-01-31 23:12:00,
2013-01-31 18:22:00,33.0,21.0,29.58,NW,324,6.0,21.0,60,0.00,,,1.85,,2013-01-31 23:22:00,
2013-01-31 18:32:00,33.0,21.0,29.60,NW,312,5.0,18.0,61,0.00,,,1.85,,2013-01-31 23:32:00,
2013-01-31 18:42:00,33.0,21.0,29.60,NW,312,5.0,18.0,61,0.00,,,1.85,,2013-01-31 23:42:00,
2013-01-31 18:52:00,33.0,20.0,29.61,WNW,290,7.0,18.0,59,0.00,,,1.85,,2013-01-31 23:52:00,
2013-01-31 19:02:00,32.0,20.0,29.62,WNW,298,8.0,22.0,60,0.00,,,1.85,,2013-02-01 00:02:00,
2013-01-31 19:11:00,32.0,20.0,29.62,WNW,298,8.0,22.0,60,0.00,,,1.85,,2013-02-01 00:11:00,
2013-01-31 19:22:00,32.0,20.0,29.62,NW,318,5.0,16.0,60,0.00,,,1.85,,2013-02-01 00:22:00,
2013-01-31 19:32:00,31.0,18.0,29.63,WNW,291,5.0,20.0,57,0.00,,,1.85,,2013-02-01 00:32:00,
2013-01-31 19:42:00,31.0,18.0,29.63,WNW,291,5.0,20.0,57,0.00,,,1.85,,2013-02-01 00:42:00,
2013-01-31 19:51:00,31.0,17.0,29.63,West,281,4.0,12.0,56,0.00,,,1.85,,2013-02-01 00:51:00,
2013-01-31 20:01:00,31.0,18.0,29.64,West,270,5.0,16.0,57,0.00,,,1.85,,2013-02-01 01:01:00,
2013-01-31 20:11:00,31.0,17.0,29.64,West,266,7.0,20.0,55,0.00,,,1.85,,2013-02-01 01:11:00,
2013-01-31 20:21:00,31.0,17.0,29.64,West,266,7.0,20.0,55,0.00,,,1.85,,2013-02-01 01:21:00,
2013-01-31 20:32:00,31.0,17.0,29.65,North,349,6.0,20.0,55,0.00,,,1.85,,2013-02-01 01:32:00,
2013-01-31 20:42:00,31.0,17.0,29.65,North,349,6.0,20.0,55,0.00,,,1.85,,2013-02-01 01:42:00,
2013-01-31 20:52:00,31.0,17.0,29.65,West,276,8.0,18.0,55,0.00,,,1.85,,2013-02-01 01:52:00,
2013-01-31 21:02:00,31.0,18.0,29.65,WNW,286,5.0,14.0,57,0.00,,,1.85,,2013-02-01 02:02:00,
2013-01-31 21:11:00,31.0,18.0,29.65,WNW,286,5.0,14.0,57,0.00,,,1.85,,2013-02-01 02:11:00,
2013-01-31 21:21:00,30.0,17.0,29.66,WNW,292,7.0,14.0,59,0.00,,,1.85,,2013-02-01 02:21:00,
2013-01-31 21:32:00,30.0,17.0,29.66,WNW,292,7.0,14.0,59,0.00,,,1.85,,2013-02-01 02:32:00,
2013-01-31 21:42:00,30.0,17.0,29.66,WNW,292,7.0,14.0,59,0.00,,,1.85,,2013-02-01 02:42:00,
2013-01-31 21:52:00,30.0,17.0,29.66,WNW,292,7.0,14.0,59,0.00,,,1.85,,2013-02-01 02:52:00,
2013-01-31 22:02:00,30.0,20.0,29.67,WNW,298,7.0,21.0,65,0.00,,,1.84,,2013-02-01 03:02:00,
2013-01-31 22:12:00,30.0,20.0,29.67,WNW,298,7.0,21.0,65,0.00,,,1.84,,2013-02-01 03:12:00,
2013-01-31 22:22:00,29.0,18.0,29.68,WNW,295,5.0,12.0,64,0.00,,,1.83,,2013-02-01 03:22:00,
2013-01-31 22:33:00,29.0,18.0,29.68,NW,318,6.0,18.0,62,0.00,,,1.83,,2013-02-01 03:33:00,
2013-01-31 22:42:00,29.0,18.0,29.68,NW,318,6.0,18.0,62,0.00,,,1.83,,2013-02-01 03:42:00,
2013-01-31 22:51:00,29.0,16.0,29.68,West,262,5.0,17.0,59,0.00,,,1.80,,2013-02-01 03:51:00,
2013-01-31 23:02:00,29.0,15.0,29.69,NW,320,6.0,20.0,56,0.00,,,1.75,,2013-02-01 04:02:00,
2013-01-31 23:11:00,29.0,14.0,29.69,WNW,291,10.0,24.0,54,0.00,,,1.71,,2013-02-01 04:11:00,
2013-01-31 23:21:00,29.0,14.0,29.69,WNW,291,10.0,24.0,54,0.00,,,1.71,,2013-02-01 04:21:00,
2013-01-31 23:32:00,28.0,13.0,29.70,WNW,285,6.0,16.0,53,0.00,,,1.65,,2013-02-01 04:32:00,
2013-01-31 23:42:00,28.0,13.0,29.70,WNW,285,6.0,16.0,53,0.00,,,1.65,,2013-02-01 04:42:00,
2013-01-31 23:52:00,28.0,13.0,29.70,WNW,285,6.0,16.0,53,0.00,,,1.65,,2013-02-01 04:52:00,